Tracking 19706 objects as of 16-Jun-2019
HD Live streaming from Space Station
objects crossing your sky now

SL-3 R/B

Track SL-3 R/B now!
10-day predictions


NORAD ID: 6257
Int'l Code: 1972-085B
Perigee: 838.0 km
Apogee: 919.5 km
Inclination: 81.3 °
Period: 102.4 minutes
Semi major axis: 7249 km
RCS: 6.5788 m2 (large)
Launch date: October 26, 1972
Source: Commonwealth of Independent States (former USSR) (CIS)
Launch site: PLESETSK MISSILE AND SPACE COMPLEX (PKMTR)

Note: This is a ROCKET BODY
aabbcc
Your satellite tracking list
Your tracking list is empty




NASA's NSSDC Master Catalog

Two Line Element Set (TLE):
1  6257U 72085B   19166.54866495 +.00000037 +00000-0 +15143-4 0  9990
2  6257 081.2574 175.6549 0056186 240.1774 119.3803 14.06434336391605
Source of the keplerian elements: AFSPC